This demonstration page uses our WeatherBlox Daily Observations layout. Learn more.

Left ArrowRight Arrow

53.62937, 11.41316

Hourly Observations for June 21, 2017

Temp ( °F °C ) Dew Point ( °F °C ) Humidity (%) Winds ( mph kmh ) Pressure ( in mb ) Visibility ( mi km ) Precip ( " mm )
6:20 am 06:20 Mostly Sunny 50 10 50 10 100 100 WSW 6 9 30.09 1019 7 11 N/A
6:50 am 06:50 Mostly Sunny 52 11 50 10 94 94 W 7 11 30.09 1019 7 11 N/A
7:20 am 07:20 Mostly Sunny 54 12 50 10 88 88 WSW 5 7 30.09 1019 7 11 N/A
7:50 am 07:50 Mostly Sunny 55 13 50 10 82 82 W 5 7 30.09 1019 7 11 N/A
8:20 am 08:20 Mostly Sunny 57 14 52 11 82 82 WNW 6 9 30.09 1019 7 11 N/A
8:50 am 08:50 Partly Cloudy 59 15 52 11 77 77 W 7 11 30.09 1019 30 48 N/A
9:20 am 09:20 Partly Cloudy 61 16 48 9 63 63 NW 8 13 30.09 1019 30 48 N/A
9:50 am 09:50 Mostly Sunny 61 16 46 8 59 59 NW 8 13 30.09 1019 30 48 N/A
10:20 am 10:20 Mostly Sunny 63 17 48 9 59 59 NW 8 13 30.09 1019 7 11 N/A
10:50 am 10:50 Mostly Sunny 63 17 46 8 56 56 NW 10 17 30.09 1019 7 11 N/A
11:20 am 11:20 Mostly Sunny 64 18 48 9 56 56 W 8 13 30.09 1019 7 11 N/A
11:50 am 11:50 Mostly Sunny 64 18 46 8 52 52 W 8 13 30.09 1019 30 48 N/A
12:20 pm 12:20 Mostly Sunny 66 19 46 8 49 49 VRB 8 13 30.09 1019 30 48 N/A
12:50 pm 12:50 Mostly Sunny 68 20 48 9 49 49 WNW 8 13 30.09 1019 7 11 N/A
1:20 pm 13:20 Mostly Sunny 66 19 46 8 49 49 W 9 15 30.09 1019 7 11 N/A
1:50 pm 13:50 Mostly Sunny 68 20 46 8 46 46 W 9 15 30.06 1018 7 11 N/A
2:20 pm 14:20 Mostly Sunny 70 21 48 9 46 46 NNW 9 15 30.06 1018 7 11 N/A
2:50 pm 14:50 Mostly Sunny 70 21 48 9 46 46 NW 9 15 30.06 1018 7 11 N/A
3:20 pm 15:20 Mostly Sunny 68 20 46 8 46 46 NW 8 13 30.06 1018 7 11 N/A
3:50 pm 15:50 Mostly Sunny 70 21 48 9 46 46 NW 7 11 30.03 1017 7 11 N/A
4:20 pm 16:20 Mostly Sunny 70 21 46 8 43 43 VRB 6 9 30.03 1017 7 11 N/A
4:50 pm 16:50 Mostly Sunny 72 22 50 10 47 47 WSW 8 13 30.03 1017 7 11 N/A
5:20 pm 17:20 Mostly Sunny 70 21 46 8 43 43 W 8 13 30.03 1017 7 11 N/A
5:50 pm 17:50 Mostly Sunny 70 21 48 9 46 46 W 7 11 30.00 1016 7 11 N/A

Powered by AerisWeather